Thayer, KS

11:04 PM CST on February 19, 2017 (GMT -0600)
Tri-City

Weather History for KPPF - February, 2013

Change the Weather History Date:

Friday, February 8, 2013

  Actual Average Record
Temperature  
Mean Temperature 38 °F -  
Max Temperature 46 °F 44 °F 73 °F (2015)
Min Temperature 30 °F 21 °F -1 °F (1971)
Degree Days  
Heating Degree Days 27    
Moisture  
Dew Point 30 °F    
Average Humidity 78    
Maximum Humidity 88    
Minimum Humidity 58    
Precipitation  
Precipitation 0.00 in - - ()
Sea Level Pressure  
Sea Level Pressure 30.29 in    
Wind  
Wind Speed 7 mph (NE)    
Max Wind Speed 13 mph    
Max Gust Speed 18 mph    
Visibility 7 miles    
Events      
Averages and records for this station are not official NWS values.
T = Trace of Precipitation, MM = Missing Value Source: NWS Daily Summary

Daily Weather History Graph

Daily Weather History Graph

Search for Another Location

Airport or City:

Trip Planner

Search our weather history database for the weather conditions in past years. The results will help you decide how hot, cold, wet, or windy it might be!

Date:

Astronomy

Feb. 08, 2013 Rise Set
Actual Time 7:18 AM CST 5:54 PM CST
Civil Twilight 6:51 AM CST 6:21 PM CST
Nautical Twilight 6:20 AM CST 6:52 PM CST
Astronomical Twilight 5:50 AM CST 7:22 PM CST
Moon 5:46 AM CST (2/8) 4:29 PM CST (2/8)
Length of Visible Light 11h 30m
Length of Day
10h 36m
Waning Crescent, 3% of the Moon is Illuminated
Feb 8
Waning Crescent
Feb 10
New
Feb 17
First Quarter
Feb 25
Full
Mar 4
Last Quarter

Hourly Weather History & Observations

Time (CST) Temp. Windchill Dew Point Humidity Pressure Visibility Wind Dir Wind Speed Gust Speed Precip Events Conditions
12:52 AM 36.0 °F 27.5 °F 30.9 °F 82% 30.22 in 4.0 mi North 12.7 mph 18.4 mph N/A   Haze
1:52 AM 34.0 °F 25.0 °F 30.0 °F 85% 30.24 in 4.0 mi North 12.7 mph - N/A   Overcast
2:52 AM 34.0 °F 28.8 °F 28.9 °F 82% 30.25 in 4.0 mi NNE 5.8 mph - N/A   Haze
3:52 AM 33.1 °F 28.7 °F 28.0 °F 82% 30.27 in 5.0 mi NNE 4.6 mph - N/A   Haze
4:52 AM 32.0 °F 24.8 °F 27.0 °F 82% 30.29 in 6.0 mi North 8.1 mph - N/A   Haze
5:21 AM 32.0 °F 27.5 °F 26.6 °F 80% 30.29 in 6.0 mi NNE 4.6 mph - N/A   Haze
5:52 AM 32.0 °F 26.4 °F 27.0 °F 82% 30.30 in 6.0 mi NE 5.8 mph - N/A   Haze
6:52 AM 30.9 °F 23.5 °F 27.0 °F 85% 30.31 in 6.0 mi NNE 8.1 mph - N/A   Overcast
7:52 AM 30.9 °F 25.2 °F 27.0 °F 85% 30.33 in 5.0 mi NNE 5.8 mph - N/A   Overcast
8:52 AM 30.9 °F 25.2 °F 27.0 °F 85% 30.36 in 6.0 mi NNE 5.8 mph - N/A   Overcast
9:52 AM 33.1 °F 30.0 °F 28.9 °F 85% 30.35 in 6.0 mi Variable 3.5 mph - N/A   Overcast
10:15 AM 33.8 °F 28.6 °F 28.4 °F 81% 30.34 in 5.0 mi Variable 5.8 mph - N/A   Haze
10:52 AM 36.0 °F 31.1 °F 28.9 °F 76% 30.36 in 5.0 mi Variable 5.8 mph - N/A   Haze
11:52 AM 37.9 °F 34.4 °F 30.0 °F 73% 30.36 in 5.0 mi NNE 4.6 mph - N/A   Haze
12:10 PM 39.2 °F 35.0 °F 30.2 °F 70% 30.35 in 5.0 mi NE 5.8 mph - N/A   Haze
12:34 PM 39.2 °F 37.0 °F 30.2 °F 70% 30.35 in 6.0 mi Variable 3.5 mph - N/A   Haze
12:52 PM 41.0 °F 38.0 °F 32.0 °F 70% 30.35 in 6.0 mi Variable 4.6 mph - N/A   Haze
1:52 PM 44.1 °F 41.5 °F 32.0 °F 63% 30.31 in 7.0 mi ENE 4.6 mph - N/A   Clear
2:52 PM 46.0 °F 43.9 °F 33.1 °F 61% 30.26 in 9.0 mi Variable 4.6 mph - N/A   Clear
3:52 PM 46.0 °F 43.9 °F 32.0 °F 58% 30.27 in 10.0 mi Variable 4.6 mph - N/A   Clear
4:52 PM 46.0 °F 44.8 °F 33.1 °F 61% 30.26 in 10.0 mi ESE 3.5 mph - N/A   Clear
5:52 PM 42.1 °F - 33.1 °F 70% 30.25 in 10.0 mi Calm Calm - N/A   Clear
6:52 PM 35.1 °F - 30.9 °F 85% 30.26 in 10.0 mi Calm Calm - N/A   Clear
7:52 PM 32.0 °F - 28.9 °F 88% 30.25 in 8.0 mi Calm Calm - N/A   Clear
8:52 PM 36.0 °F - 30.9 °F 82% 30.23 in 10.0 mi Calm Calm - N/A   Clear
9:52 PM 36.0 °F 32.1 °F 30.9 °F 82% 30.23 in 10.0 mi East 4.6 mph - N/A   Clear
10:52 PM 35.1 °F 32.2 °F 30.9 °F 85% 30.22 in 9.0 mi Variable 3.5 mph - N/A   Clear
11:52 PM 35.1 °F 32.2 °F 30.9 °F 85% 30.19 in 9.0 mi East 3.5 mph - N/A   Clear